Temp
6 6 6 5 5 7 8 9 9 9 9 9 10 10 10 11 10 10 11 10 10 9 9 9 9 8 7 6 8 9 9 9 9 8 9 8 8 9 8 8 10 10 8 8 8 8 8
8 7 7 7 7 7 8 9 10 10 10 10 11 11 10 10 11 11 10 10 10 9 9 9 8 7 6 6 9 9 9 9 9 9 9 8 9 9 9 9 9 10 8 7 7 7 7
9 9 9 9 9 9 9 10 10 10 10 10 10 10 11 10 11 10 10 9 9 9 9 9 8 6 5 8 9 9 9 9 9 9 9 8 8 9 9 8 8 7 6 6 6 6 6
9 9 9 9 9 9 10 10 10 10 10 10 10 10 10 10 9 9 8 8 8 8 8 8 7 6 6 9 8 9 9 9 9 8 8 9 9 8 9 8 8 7 6 7 7 6 6
9 9 9 9 9 9 9 10 10 10 10 10 10 9 9 9 8 7 7 7 7 8 7 7 5 5 6 8 8 9 9 9 8 8 7 8 8 8 8 7 7 6 5 6 8 6 5
8 8 8 9 9 9 9 9 9 9 9 9 9 9 9 8 7 7 7 7 6 6 6 5 6 5 8 9 9 9 9 8 8 7 7 7 8 7 7 7 8 7 6 6 7 6 5
8 8 8 8 8 9 9 9 9 9 9 9 9 9 9 8 7 7 7 7 6 6 6 7 7 7 8 8 9 9 8 8 7 7 6 7 6 8 8 7 9 7 6 7 7 6 5
7 8 8 8 8 8 9 9 9 9 9 9 9 9 9 8 7 7 6 6 4 4 4 6 6 6 7 7 8 8 8 8 8 6 6 6 7 7 8 9 9 8 7 6 7 5 5
7 7 8 8 8 8 8 8 8 8 8 8 8 8 8 8 7 6 5 5 4 4 4 5 6 6 7 8 7 8 8 8 7 5 5 6 7 8 7 7 8 8 9 6 8 4 5
7 7 7 8 8 8 8 8 8 8 8 8 8 8 8 8 7 6 5 5 5 5 4 5 6 7 7 8 8 8 8 9 7 6 6 6 7 7 7 7 7 7 6 7 5 6 7
7 7 7 7 7 7 7 7 7 7 7 8 8 8 8 7 7 6 5 5 5 5 5 7 7 8 8 8 8 8 8 8 7 6 7 7 6 6 6 8 7 8 7 7 5 5 5
7 7 7 7 7 7 7 7 7 7 7 7 8 8 8 7 6 6 5 5 5 5 6 7 7 7 7 8 8 7 8 7 7 7 6 6 7 8 8 8 8 8 7 6 6 5 6
7 7 6 6 6 6 6 6 6 6 7 7 8 8 8 7 6 5 5 5 5 5 9 7 7 7 7 7 7 7 6 6 6 6 6 7 7 7 8 7 7 7 6 7 6 5 7
6 6 5 5 5 5 5 5 6 6 7 7 8 8 7 6 5 5 5 5 4 8 7 8 7 7 7 7 7 7 6 6 6 6 6 6 7 7 7 8 7 6 7 7 7 7 6
5 5 4 5 4 4 4 5 5 5 6 7 7 7 6 5 5 4 4 3 5 6 7 6 7 7 7 7 6 6 5 6 6 5 6 6 6 7 7 9 9 5 6 7 7 7 6
4 4 4 4 4 4 4 5 5 5 5 5 6 6 4 4 4 4 5 4 5 6 6 7 6 7 6 6 6 6 6 6 6 5 5 5 6 6 6 7 7 6 7 6 5 7 7
4 4 4 4 4 4 4 4 4 4 4 5 6 6 4 4 3 4 3 2 5 7 6 5 5 5 5 4 4 5 5 6 4 5 4 4 4 4 6 6 7 6 5 5 6 6 7
4 3 3 3 3 3 3 3 3 3 3 4 4 2 4 3 3 1 1 4 5 6 6 5 2 2 3 2 2 4 4 5 3 3 4 3 3 1 3 6 6 6 5 5 4 5 5
3 3 3 2 3 2 2 2 2 2 2 2 3 3 3 3 1 0 1 3 4 4 4 4 3 4 5 4 2 3 4 3 3 3 2 2 2 2 3 3 3 2 1 1 2 3 2
2 2 2 2 2 2 2 1 1 1 2 2 1 -0 3 2 2 2 1 2 3 4 4 3 3 4 2 2 3 2 2 3 3 3 4 2 0 0 1 1 1 2 1 2 2 -0 0
2 2 2 2 2 1 1 1 1 1 2 1 1 -3 -3 -2 -1 -2 0 1 2 1 2 2 2 -0 1 -1 0 1 2 1 2 2 1 1 0 -0 1 1 1 1 1 2 0 0 -1
2 1 1 1 1 0 0 -0 0 -0 0 1 -0 -2 -1 -2 -2 -1 -1 0 0 -0 0 -0 -0 -0 -0 -1 -0 -1 -0 -2 -0 -1 -1 -3 -0 -0 -1 0 -0 -0 -1 -1 -1 -0 -1
1 1 1 0 -0 -1 -1 -2 -1 -1 -1 -1 -2 -3 -4 -2 -3 -2 -3 -2 -1 -1 -0 -0 -1 -2 -1 -1 -3 -2 -2 -2 -2 -2 -3 -2 -2 -3 -3 -5 -5 -7 -5 -1 0 0 -0
1 1 0 -0 -1 -1 -2 -2 -3 -2 -2 -3 -3 -3 -4 -3 -3 -3 -3 -3 -3 -3 -3 -1 -2 -2 -2 -2 -2 -2 -3 -3 -3 -3 -2 -5 -6 -7 -10 -8 -6 -4 -9 -7 -5 -4 -6
0 -0 -1 -1 -1 -2 -2 -3 -3 -3 -3 -3 -3 -4 -4 -6 -4 -3 -4 -4 -4 -4 -4 -3 -3 -4 -4 -3 -3 -3 -3 -3 -3 -3 -4 -4 -6 -10 -11 -10 -9 -5 -8 -8 -7 -5 -14
-1 -1 -1 -2 -2 -3 -3 -3 -3 -3 -3 -3 -4 -4 -5 -6 -5 -5 -5 -5 -6 -7 -7 -4 -4 -4 -4 -4 -3 -8 -7 -4 -5 -5 -6 -5 -7 -8 -15 -11 -10 -8 -14 -16 -16 -9 -15
-0 -1 -2 -2 -2 -3 -3 -4 -4 -4 -4 -4 -4 -5 -6 -5 -5 -5 -6 -6 -5 -6 -8 -6 -6 -6 -5 -5 -5 -10 -9 -6 -8 -8 -8 -8 -11 -7 -9 -7 -8 -15 -18 -15 -8 -7 -14
-1 -2 -2 -2 -3 -3 -3 -4 -4 -4 -5 -5 -5 -5 -6 -6 -6 -6 -6 -6 -7 -7 -8 -7 -7 -7 -7 -7 -6 -7 -9 -9 -9 -10 -10 -8 -11 -8 -12 -11 -8 -14 -13 -8 -10 -13 -13
-1 -2 -2 -2 -3 -3 -4 -4 -4 -5 -5 -5 -5 -7 -7 -7 -6 -6 -7 -7 -7 -7 -7 -7 -8 -8 -8 -9 -11 -12 -13 -16 -15 -12 -8 -9 -10 -11 -9 -9 -12 -11 -8 -9 -12 -14 -13
Height
1535 1533 1530 1528 1525 1522 1520 1517 1514 1511 1507 1504 1501 1498 1494 1490 1487 1484 1482 1480 1479 1478 1478 1477 1476 1476 1476 1477 1473 1472 1471 1470 1471 1473 1475 1478 1482 1485 1485 1484 1486 1486 1489 1491 1494 1499 1503
1537 1534 1532 1529 1526 1523 1520 1517 1515 1511 1508 1504 1500 1497 1493 1489 1486 1483 1481 1479 1477 1476 1476 1476 1476 1475 1475 1476 1469 1471 1471 1471 1469 1472 1474 1477 1479 1482 1483 1483 1485 1483 1488 1492 1495 1494 1498
1538 1535 1533 1530 1527 1524 1521 1518 1515 1511 1508 1504 1500 1496 1492 1488 1484 1481 1479 1477 1476 1474 1473 1473 1475 1475 1473 1469 1468 1469 1471 1471 1470 1469 1472 1476 1478 1482 1482 1484 1485 1487 1491 1493 1495 1497 1496
1539 1536 1534 1531 1528 1525 1522 1518 1515 1511 1507 1504 1500 1496 1492 1488 1484 1481 1479 1477 1476 1475 1474 1473 1473 1474 1470 1466 1466 1467 1469 1470 1470 1468 1471 1474 1478 1480 1481 1483 1485 1488 1490 1494 1492 1494 1494
1540 1537 1535 1531 1528 1524 1521 1518 1514 1511 1507 1504 1500 1496 1492 1488 1484 1482 1480 1478 1475 1473 1473 1472 1473 1474 1468 1465 1465 1465 1467 1468 1469 1470 1471 1472 1476 1479 1481 1482 1484 1489 1495 1492 1488 1489 1491
1539 1537 1534 1531 1528 1525 1522 1518 1514 1510 1507 1503 1499 1496 1492 1488 1485 1482 1480 1478 1476 1473 1472 1472 1472 1475 1465 1464 1463 1464 1465 1466 1468 1470 1473 1473 1473 1475 1479 1480 1476 1483 1489 1488 1485 1485 1488
1539 1536 1533 1530 1528 1525 1521 1517 1514 1510 1506 1503 1499 1495 1491 1488 1485 1482 1480 1478 1478 1475 1471 1465 1464 1461 1460 1461 1462 1462 1463 1464 1466 1469 1471 1473 1474 1466 1471 1475 1473 1477 1479 1480 1478 1479 1484
1538 1535 1533 1530 1527 1523 1520 1517 1513 1509 1505 1501 1498 1494 1490 1487 1484 1481 1479 1478 1478 1479 1468 1458 1457 1457 1457 1459 1460 1460 1462 1463 1463 1467 1468 1473 1467 1466 1467 1468 1471 1473 1477 1476 1476 1479 1482
1538 1535 1531 1528 1525 1522 1519 1515 1511 1507 1503 1499 1496 1492 1489 1486 1482 1481 1479 1479 1477 1477 1472 1454 1450 1451 1453 1458 1458 1457 1459 1459 1460 1464 1465 1465 1461 1463 1467 1469 1471 1470 1470 1478 1474 1481 1484
1537 1533 1529 1527 1524 1521 1517 1513 1509 1505 1501 1497 1493 1490 1486 1484 1484 1481 1480 1479 1478 1477 1474 1456 1451 1450 1451 1453 1454 1453 1455 1459 1460 1461 1463 1462 1458 1460 1463 1465 1468 1471 1468 1470 1477 1478 1476
1536 1532 1528 1525 1522 1519 1515 1511 1507 1503 1499 1495 1491 1487 1485 1481 1481 1480 1481 1479 1479 1479 1483 1456 1454 1453 1452 1455 1455 1452 1453 1455 1457 1459 1462 1458 1457 1459 1461 1454 1463 1462 1464 1466 1473 1476 1478
1535 1532 1528 1524 1521 1517 1514 1510 1506 1502 1497 1493 1489 1486 1482 1480 1479 1479 1478 1478 1479 1481 1472 1454 1454 1454 1454 1454 1454 1453 1453 1454 1455 1457 1458 1456 1454 1453 1451 1453 1455 1457 1462 1466 1468 1472 1460
1533 1531 1527 1523 1520 1516 1512 1508 1504 1500 1495 1490 1487 1483 1479 1477 1477 1478 1478 1478 1482 1477 1454 1457 1454 1454 1456 1455 1453 1452 1453 1454 1454 1457 1453 1449 1447 1447 1447 1453 1454 1457 1461 1458 1459 1460 1446
1532 1529 1526 1522 1519 1514 1510 1505 1500 1497 1493 1488 1484 1481 1477 1476 1476 1476 1477 1480 1482 1459 1460 1457 1456 1454 1454 1453 1451 1450 1452 1450 1448 1450 1449 1449 1442 1438 1436 1439 1443 1448 1449 1445 1440 1442 1444
1529 1528 1525 1521 1517 1513 1508 1504 1500 1496 1492 1487 1483 1478 1475 1474 1476 1477 1480 1484 1473 1465 1464 1463 1459 1455 1454 1453 1453 1450 1449 1447 1442 1443 1448 1442 1439 1431 1431 1430 1436 1445 1443 1437 1438 1435 1438
1528 1526 1523 1520 1516 1513 1508 1504 1500 1496 1491 1486 1481 1476 1474 1475 1476 1478 1478 1475 1469 1465 1463 1461 1463 1458 1461 1456 1459 1452 1449 1446 1442 1442 1441 1440 1436 1434 1433 1432 1433 1435 1435 1439 1438 1430 1422
1525 1523 1522 1519 1515 1511 1508 1504 1499 1495 1491 1487 1482 1477 1477 1476 1477 1479 1480 1477 1468 1465 1464 1465 1463 1461 1461 1463 1460 1459 1451 1447 1446 1446 1445 1445 1445 1442 1434 1432 1430 1436 1434 1435 1431 1426 1415
1524 1522 1520 1517 1514 1511 1507 1504 1500 1494 1490 1486 1482 1481 1477 1476 1480 1480 1480 1473 1470 1466 1465 1464 1467 1471 1469 1469 1466 1457 1453 1451 1451 1450 1449 1449 1447 1454 1443 1431 1430 1431 1433 1437 1440 1428 1424
1521 1520 1518 1516 1513 1510 1507 1503 1499 1494 1489 1485 1482 1478 1477 1477 1480 1480 1476 1474 1470 1468 1466 1466 1468 1466 1462 1461 1468 1457 1453 1455 1458 1456 1454 1453 1449 1447 1442 1438 1436 1440 1448 1451 1448 1441 1438
1519 1518 1516 1514 1512 1510 1507 1503 1498 1493 1489 1485 1483 1482 1478 1478 1479 1477 1477 1473 1471 1468 1467 1467 1466 1464 1466 1465 1459 1459 1459 1455 1455 1455 1454 1456 1456 1457 1453 1449 1447 1442 1442 1443 1447 1453 1448
1517 1516 1514 1513 1511 1509 1506 1503 1499 1494 1489 1487 1485 1487 1487 1484 1480 1481 1480 1475 1473 1472 1470 1468 1466 1469 1468 1470 1464 1457 1453 1454 1453 1453 1453 1454 1453 1453 1446 1445 1444 1443 1439 1436 1443 1444 1447
1516 1514 1512 1512 1511 1509 1506 1503 1499 1495 1492 1489 1488 1489 1487 1484 1482 1480 1479 1477 1476 1476 1475 1472 1471 1470 1471 1472 1468 1467 1461 1461 1457 1454 1453 1455 1450 1448 1447 1442 1442 1440 1441 1441 1437 1436 1435
1514 1513 1512 1511 1509 1508 1506 1503 1500 1496 1492 1490 1492 1491 1490 1485 1482 1483 1485 1483 1480 1478 1474 1473 1472 1473 1471 1468 1468 1465 1463 1461 1458 1458 1457 1454 1452 1455 1446 1453 1453 1462 1448 1431 1425 1423 1422
1512 1512 1511 1510 1508 1507 1505 1504 1501 1498 1494 1493 1493 1491 1492 1488 1486 1485 1485 1484 1482 1481 1478 1473 1472 1471 1470 1467 1463 1458 1454 1450 1449 1446 1448 1453 1459 1465 1474 1465 1463 1436 1436 1435 1431 1426 1424
1509 1510 1510 1511 1510 1508 1506 1505 1503 1501 1498 1494 1494 1493 1493 1491 1489 1485 1484 1483 1481 1479 1476 1473 1472 1472 1469 1466 1463 1457 1452 1448 1442 1442 1443 1445 1455 1474 1483 1477 1458 1437 1435 1438 1435 1425 1433
1509 1509 1508 1508 1509 1508 1507 1506 1504 1502 1499 1496 1494 1493 1494 1493 1489 1488 1486 1484 1484 1483 1478 1474 1472 1470 1468 1466 1461 1476 1470 1454 1452 1446 1444 1445 1449 1462 1492 1479 1474 1444 1444 1443 1443 1441 1433
1504 1506 1507 1506 1507 1508 1508 1506 1504 1501 1499 1497 1494 1493 1492 1491 1489 1489 1488 1487 1486 1484 1483 1477 1475 1470 1469 1467 1465 1479 1476 1460 1469 1465 1460 1457 1464 1456 1462 1450 1449 1448 1445 1445 1443 1433 1433
1502 1504 1504 1504 1505 1504 1506 1506 1503 1500 1499 1497 1494 1492 1492 1490 1488 1488 1487 1486 1485 1485 1484 1479 1477 1476 1473 1473 1471 1472 1474 1469 1470 1466 1466 1463 1471 1459 1466 1466 1448 1439 1443 1441 1435 1432 1431
1497 1502 1503 1503 1502 1502 1503 1503 1502 1500 1498 1496 1493 1490 1489 1489 1488 1486 1484 1483 1484 1483 1483 1481 1481 1479 1478 1478 1480 1482 1485 1483 1482 1477 1457 1461 1459 1461 1453 1446 1435 1434 1432 1431 1430 1429 1428
Wind_Speed
15 17 17 17 17 17 18 18 19 20 18 17 17 17 18 17 16 13 11 9 7 7 6 7 7 3 2 4 10 6 2 0 4 16 15 14 19 11 6 8 10 5 3 13 14 15 19
15 16 17 18 18 18 18 19 20 20 20 20 20 20 19 19 18 14 11 8 7 6 6 6 7 4 2 5 6 8 4 2 3 15 18 15 11 16 6 4 9 9 10 8 12 15 12
15 16 17 19 19 19 19 19 19 19 20 20 20 21 21 19 16 12 9 7 6 6 6 7 7 4 8 13 7 10 5 2 3 9 17 17 10 17 0 2 4 9 6 2 6 11 6
18 19 19 19 19 20 20 19 19 20 20 21 21 22 21 18 13 11 9 8 7 7 6 6 7 4 9 5 11 14 11 9 6 7 14 17 19 5 1 10 4 4 4 4 4 9 5
20 20 21 21 20 20 19 19 19 19 20 21 21 21 21 18 12 10 8 7 6 6 4 4 3 5 11 5 7 9 12 12 7 8 12 11 16 5 5 4 3 3 3 5 3 10 4
19 20 21 22 22 22 22 21 21 21 20 20 21 21 19 17 12 10 9 8 8 6 1 3 5 5 9 3 3 5 7 10 6 8 14 5 8 5 3 4 10 6 4 4 5 5 4
20 20 20 21 23 24 24 23 23 22 22 22 22 21 19 16 13 13 11 9 6 5 9 11 6 7 2 3 4 7 8 11 9 11 6 5 4 15 12 10 5 6 6 7 3 6 6
20 20 21 21 22 22 23 24 24 24 23 22 22 21 20 17 14 13 11 5 3 7 12 19 30 24 17 4 3 7 11 11 8 5 5 3 13 11 7 10 11 5 5 7 2 3 6
20 21 21 21 22 23 23 23 23 23 22 22 22 22 21 18 15 10 7 4 4 8 6 12 13 14 23 15 7 8 16 9 4 6 7 6 4 9 6 4 10 10 15 5 5 3 1
20 20 21 22 23 23 24 24 24 24 23 23 22 22 22 19 10 8 7 5 7 9 5 5 3 3 7 10 5 12 14 6 2 7 5 6 5 5 9 10 11 15 7 7 6 5 8
20 20 21 22 23 24 24 24 24 24 24 23 22 22 21 19 14 8 6 7 5 4 6 2 1 2 7 8 2 1 10 10 5 5 4 5 5 6 8 19 9 12 8 10 5 7 2
19 20 21 23 24 24 24 24 24 24 24 23 22 22 20 16 11 7 5 3 2 2 6 2 2 1 2 6 3 1 2 5 1 3 4 5 2 4 7 5 13 3 2 3 3 4 11
18 22 24 24 23 23 24 25 24 24 24 23 22 21 19 13 7 4 4 2 1 3 3 4 1 2 1 2 3 6 4 3 5 3 6 4 9 5 5 4 1 8 5 4 4 5 7
17 23 24 22 22 22 23 23 22 22 22 24 23 21 18 10 7 3 2 1 3 1 2 3 3 2 2 3 5 2 2 4 6 4 3 4 6 10 8 16 9 13 10 6 7 4 5
17 23 22 21 21 20 20 21 22 24 25 26 24 21 11 4 2 2 3 2 4 2 3 6 8 2 2 2 4 3 5 5 5 12 8 5 7 1 3 6 10 4 10 14 11 12 5
20 21 20 19 20 21 21 21 22 23 24 26 25 17 5 2 1 3 3 4 4 2 4 2 3 2 9 4 7 7 4 1 4 2 3 2 7 1 4 3 4 11 4 3 5 5 8
19 18 17 18 18 18 19 18 21 24 25 26 20 8 3 1 1 2 3 5 4 7 4 4 5 5 4 4 6 6 4 5 6 5 4 1 3 5 2 4 6 3 2 3 3 4 3
17 15 15 16 16 17 18 20 24 27 28 27 12 3 3 2 1 1 2 3 6 4 5 2 3 3 5 7 6 5 4 4 10 4 5 3 3 3 8 8 1 1 4 2 4 6 4
13 12 13 14 15 16 19 22 25 27 26 21 14 5 2 4 1 2 5 5 3 3 4 5 1 5 4 5 5 8 2 4 12 10 5 4 3 5 8 2 4 3 3 1 6 3 6
10 10 10 12 14 15 20 23 25 26 21 14 5 3 3 1 3 4 3 4 4 4 2 7 4 3 6 7 1 3 9 5 11 9 13 7 1 5 8 8 4 11 2 2 3 3 6
9 8 9 12 13 16 18 22 23 21 18 9 7 2 2 3 3 4 3 3 4 5 8 9 3 6 5 3 5 7 5 3 3 9 2 2 6 4 9 12 12 13 16 12 9 9 8
8 7 8 10 12 14 17 19 20 18 17 12 5 5 5 5 7 4 5 2 3 4 6 3 4 4 3 4 6 12 12 2 5 3 3 0 10 7 9 11 11 15 11 9 13 12 13
7 7 6 8 10 14 16 18 20 22 18 9 9 6 4 5 4 2 3 5 4 7 2 5 5 5 10 9 10 15 15 16 10 3 3 3 3 2 12 3 4 5 8 16 10 9 7
7 6 6 6 8 11 13 15 17 20 21 16 11 7 4 3 2 1 5 4 4 8 5 11 14 4 4 15 20 18 20 21 20 18 16 5 2 1 3 3 7 6 3 1 3 8 6
7 5 4 5 7 9 11 12 15 18 18 17 12 8 3 3 3 4 8 4 10 14 4 5 7 6 16 11 3 4 4 3 4 5 4 12 3 1 2 4 6 9 4 2 3 6 3
8 5 3 3 5 6 8 10 13 15 17 16 12 10 4 2 2 5 4 5 3 4 6 4 9 13 8 2 3 2 3 3 5 7 6 4 3 3 2 3 5 6 3 3 0 4 2
10 6 4 3 3 4 6 8 10 13 14 16 12 9 4 3 3 5 2 2 5 3 3 6 9 7 8 2 2 1 3 3 3 3 4 3 2 6 5 6 6 3 3 4 3 4 5
11 8 6 4 4 2 6 9 10 10 12 16 12 9 5 3 11 3 2 8 7 3 1 6 7 3 4 2 2 2 1 2 2 3 2 2 1 3 1 1 5 9 3 2 1 4 9
11 10 8 5 4 4 6 8 7 9 12 15 15 12 8 5 6 14 9 5 6 7 6 2 2 2 2 1 2 2 2 2 2 3 2 3 5 3 5 5 1 9 9 10 14 13 11
Wind_Direction
21 16 15 12 11 9 7 3 2 2 0 357 350 344 338 334 330 327 327 320 311 290 277 251 245 251 235 240 248 216 246 247 216 197 186 182 181 198 184 193 181 198 143 176 194 214 225
14 11 10 9 8 8 7 4 1 359 359 358 354 350 347 341 334 325 322 316 308 288 272 250 237 257 209 256 227 210 231 274 208 202 198 191 200 192 230 201 178 198 154 154 178 173 178
3 4 5 5 5 5 4 3 360 356 356 356 354 351 347 343 334 330 326 319 313 294 265 238 235 253 255 250 226 210 232 277 269 218 206 201 202 192 212 123 162 130 102 129 180 179 173
353 354 356 356 359 358 359 357 357 355 352 350 351 350 350 349 349 340 333 322 312 298 280 249 225 259 259 226 228 224 229 267 267 197 210 209 210 190 89 134 79 93 99 159 188 170 177
351 349 347 347 348 349 350 350 350 349 349 348 346 347 348 346 346 343 338 335 328 310 273 215 215 265 268 231 245 231 232 249 226 195 185 202 213 200 135 155 134 58 197 197 226 197 145
350 348 347 344 343 342 342 343 343 343 344 344 343 342 343 342 339 335 322 316 315 312 264 214 233 255 259 236 199 212 223 213 179 175 181 161 176 164 179 193 213 180 212 230 216 196 175
348 345 344 343 341 340 339 340 339 340 340 341 340 339 336 334 329 326 326 316 301 275 234 220 213 221 228 226 247 224 196 175 156 156 172 208 189 207 194 204 216 181 185 199 228 179 153
344 344 341 340 340 340 340 339 340 340 340 338 336 334 331 326 321 315 325 339 356 320 299 263 245 243 239 253 288 213 194 179 158 194 148 134 230 216 209 203 221 193 208 228 193 159 177
340 340 340 339 339 338 339 340 339 338 338 336 334 332 331 326 320 309 322 328 319 321 272 283 239 234 238 231 235 236 197 200 167 173 197 191 211 189 200 179 226 237 233 205 217 130 257
337 337 338 338 338 340 339 340 338 338 339 337 335 332 331 330 325 328 310 309 312 322 298 273 233 269 182 177 244 233 211 199 193 206 190 239 217 190 201 222 192 239 191 189 175 178 242
334 335 336 339 339 338 337 339 339 337 337 337 336 333 332 326 313 316 311 313 316 329 328 73 93 127 161 172 352 63 206 213 194 199 170 231 192 185 203 223 183 245 180 200 197 215 176
332 334 337 338 339 339 340 341 339 339 336 338 336 332 330 324 312 303 300 316 342 4 259 354 59 61 117 250 324 32 170 211 311 219 214 243 227 193 226 181 199 180 102 347 153 201 236
337 338 336 336 339 341 342 343 342 343 339 339 338 332 327 318 306 311 312 155 49 193 31 343 337 116 238 252 262 201 193 188 206 208 217 188 221 209 187 179 257 194 160 233 228 200 243
336 336 333 335 339 343 344 345 345 350 346 344 340 332 324 313 285 271 173 171 208 312 313 353 334 209 189 204 241 241 222 241 222 216 244 222 267 190 198 204 191 199 201 219 258 212 235
328 333 333 337 342 346 347 348 351 354 354 346 340 329 330 334 303 213 177 202 249 330 329 340 310 359 315 277 264 263 230 229 236 195 211 221 242 199 168 229 198 178 213 232 253 244 262
332 337 335 342 348 349 352 354 356 357 359 356 349 338 20 58 65 171 203 238 259 269 324 287 284 60 288 344 334 332 303 268 292 1 285 303 264 227 295 78 248 206 158 185 200 242 245
334 331 336 343 348 349 353 356 352 349 347 347 351 344 20 144 190 203 226 237 289 302 353 347 350 299 299 324 319 301 276 308 6 349 338 76 256 284 24 208 225 149 266 244 274 239 278
325 328 337 341 344 347 353 356 353 347 345 343 345 339 296 233 36 301 263 282 326 316 306 141 115 271 341 338 287 260 262 268 5 334 326 33 317 283 232 262 294 7 222 253 279 299 318
320 327 335 339 344 348 351 352 351 349 347 343 329 291 288 207 199 292 296 299 286 314 357 28 353 313 302 279 271 270 28 10 340 326 359 354 316 326 329 350 28 46 34 300 295 304 267
313 323 331 336 343 347 349 352 355 356 353 346 337 350 2 241 311 303 341 276 296 337 333 357 250 324 26 325 282 282 326 355 338 331 316 303 263 227 259 265 289 290 254 160 186 216 271
307 319 327 333 346 346 350 353 358 3 10 17 20 41 9 312 342 334 308 294 307 348 359 22 5 37 341 244 302 266 250 299 311 290 314 228 257 249 251 254 263 263 282 277 236 247 245
297 312 323 338 347 348 354 357 359 7 15 34 34 5 333 286 301 328 359 344 343 322 356 292 304 337 329 263 272 290 293 242 240 321 216 263 269 276 270 268 256 257 256 271 271 254 252
281 299 318 341 353 355 4 7 7 12 16 37 11 346 332 304 348 18 352 338 339 338 344 20 18 331 304 319 327 296 286 276 263 259 255 229 236 252 269 327 344 315 218 235 246 235 232
269 281 312 337 351 1 12 13 15 23 26 25 20 13 356 296 351 9 352 327 319 315 279 288 302 260 294 306 304 289 269 253 253 247 233 236 138 78 264 18 261 256 286 292 274 274 294
252 260 306 329 354 10 17 23 23 21 23 21 26 24 357 293 306 318 348 324 328 327 295 294 311 326 319 314 290 296 292 295 270 255 234 214 178 259 187 216 310 326 323 334 149 287 177
239 254 279 314 347 10 15 11 7 8 10 16 17 8 349 314 264 312 320 347 339 321 329 311 331 335 347 278 284 224 259 297 312 337 36 73 125 143 89 189 230 240 316 358 161 292 338
221 238 245 275 319 342 1 349 346 351 352 6 8 357 351 290 297 340 345 306 325 327 276 311 337 328 4 332 294 265 271 323 292 298 329 351 14 224 235 257 274 278 273 349 115 277 327
219 226 231 257 269 277 331 328 327 341 339 349 356 350 336 277 295 293 287 310 304 293 263 320 335 360 344 17 327 335 312 320 294 237 191 211 224 273 6 248 259 189 110 223 210 290 292
215 225 234 259 256 251 319 327 335 334 331 333 341 337 323 268 275 300 303 297 272 275 281 290 273 292 1 349 18 6 310 335 172 279 331 262 195 226 196 245 321 198 242 257 289 288 296